Regional Weather Roundup
Issued by NWS

Home | Current Version | Previous Version | Text Only | Print | Product List | Glossary Off
Versions: 1 2 3 4 5 6 7 8 9 10 11 12 13 14 15 16 17 18 19 20 21 22 23 24 25 26 27 28 29 30 31 32 33 34 35 36 37 38 39 40 41 42 43 44 45 46 47 48 49 50

000
ASUS43 KLSX 190757
RWRMO

WEATHER SUMMARY FOR MISSOURI
NATIONAL WEATHER SERVICE SPRINGFIELD MO
300 AM CDT THU APR 19 2018

NOTE: "FAIR" INDICATES FEW OR NO CLOUDS BELOW 12,000 FEET WITH NO
       SIGNIFICANT WEATHER AND/OR OBSTRUCTIONS TO VISIBILITY.
       CURRENT SKY AND/OR WEATHER CONDITIONS ARE NOT AVAILABLE FOR
       CHILLICOTHE AND FARMINGTON.

MOZ001>031-035>038-043-044-053-054-190900-
...NORTHERN AND WESTERN MISSOURI...

CITY           SKY/WX    TMP DP  RH WIND       PRES   REMARKS
KANSAS CTY INT CLOUDY    38  29  70 NW7       30.24S
LEE`S SUMMIT   CLOUDY    39  29  67 NW10      30.24S
ST JOSEPH      CLOUDY    35  29  78 N17       30.28R WCI  25
CHILLICOTHE      N/A     36  28  73 NW6       30.25R

$$
MOZ066>068-077>081-088>096-101>105-190900-
...SOUTHWEST MISSOURI...

CITY           SKY/WX    TMP DP  RH WIND       PRES   REMARKS
SPRINGFIELD    CLOUDY    35  26  69 NW9       30.21S WCI  28
JOPLIN         CLOUDY    37  26  64 NW3       30.27S

$$
MOZ032>034-039>042-045>050-055>058-069>072-190900-
...CENTRAL MISSOURI...

CITY           SKY/WX    TMP DP  RH WIND       PRES   REMARKS
COLUMBIA       NOT AVBL
JEFFERSON CITY CLOUDY    38  25  59 NW8       30.21R
ROLLA          CLEAR     33  24  69 NW6       30.18R WCI  28
SEDALIA        CLOUDY    39  30  70 NW12      30.23R
WARRENSBURG    CLOUDY    36  28  75 W7        30.23S WCI  30

$$
MOZ051-052-059>065-190900-
...EAST CENTRAL MISSOURI...

CITY           SKY/WX    TMP DP  RH WIND       PRES   REMARKS
ST LOUIS INTL  CLOUDY    38  27  64 N14       30.15R WCI  30

$$
MOZ072>076-082>087-097>100-106>115-190900-
...SOUTH CENTRAL AND SOUTHEAST MISSOURI...

CITY           SKY/WX    TMP DP  RH WIND       PRES   REMARKS
CAPE GIRARDEAU CLOUDY    44  28  53 N13       30.13R
POPLAR BLUFF   CLOUDY    45  29  53 NW13      30.14R

$$




USA.gov is the U.S. government's official web portal to all federal, state and local government web resources and services.